Miscellaneous Local Product
Issued by NWS North Platte, NE

Home | Current Version | Previous Version | Text Only | Print | Product List | Glossary On
Versions: 1 2 3 4 5 6 7 8 9 10 11 12 13 14 15 16 17 18 19 20 21 22 23 24 25 26 27 28 29 30 31 32 33 34 35 36 37 38 39 40 41 42 43 44 45 46 47 48 49 50
000
AXUS43 KLBF 041810
MISLBF


WESTERN AND NORTH CENTRAL NEBRASKA HOURLY WEATHER ROUNDUP
NATIONAL WEATHER SERVICE NORTH PLATTE NE
100 PM CDT SAT JUL 04 2015

***STATIONS NOT REPORTING VARIABLES SUCH AS SKY/WEATHER OR
PRESSURE ARE PROVIDED BY THE NEBRASKA DEPARTMENT OF
ROADS...RAWS...AND APRS NETWORKS...AND ARE NOT UNDER
NATIONAL WEATHER SERVICE QUALITY CONTROL***

...OBSERVATIONS IN AND NEAR THE EASTERN PANHANDLE OF NEBRASKA...

CITY           SKY/WX    TMP DP  RH WIND       PRES   REMARKS
PINE RIDGE     SUNNY     85  65  51 S12       29.87F
CHADRON        SUNNY     86  65  49 SE7       29.85F
ALLIANCE       SUNNY     83  65  54 S16G22    29.91F
SIDNEY         SUNNY     88  62  41 SE12      29.96F
WHITECLAY        N/A     85  63  48 S13         N/A
CRESCENT LAKE    N/A     85  64  49 S9          N/A
BIG SPRINGS      N/A     87  64  45 S14         N/A
$$

...OBSERVATIONS IN NORTH CENTRAL NEBRASKA...

CITY           SKY/WX    TMP DP  RH WIND       PRES   REMARKS
VALENTINE      SUNNY     86  64  47 S12G22    29.88F
THEDFORD       SUNNY     85  66  52 SE16      29.93S
AINSWORTH      SUNNY     84  64  49 S13G21    29.91F
O`NEILL        MOSUNNY   81  66  60 S9        29.93F
ORD            MOSUNNY   82  64  54 S12       29.93F
BROKEN BOW     SUNNY     83  65  54 S15G24    29.94F
VALENTINE NWR    N/A     83  64  52 S14         N/A
SPRINGVIEW       N/A     86  67  52 SW9G20      N/A
HALSEY           N/A     82  63  52 S10G20      N/A
BREWSTER         N/A     88  67  48 S16         N/A  HX  91
ROSE             N/A     93  76  58 S18         N/A  HX 105
NEWPORT          N/A     84  65  52 S9          N/A
SARGENT          N/A     83  67  58 CALM        N/A
CHAMBERS         N/A     84  67  57 S8          N/A
EWING            N/A     81  69  67 S8G15       N/A
$$

...OBSERVATIONS IN SOUTHWEST NEBRASKA AND FAR NORTHEAST COLORADO...

CITY           SKY/WX    TMP DP  RH WIND       PRES   REMARKS
WRAY           FAIR      90  56  32 S15       29.94F
HOLYOKE        FAIR      86  63  45 S15       29.95S
IMPERIAL       SUNNY     89  61  38 S14G24    29.93F
OGALLALA       SUNNY     85  64  50 S13       29.93S
NORTH PLATTE   SUNNY     85  64  49 S13       29.93S
MCCOOK         SUNNY     88  62  41 S15G24    29.93F
LEXINGTON      SUNNY     84  66  53 S16G23    29.95S
PAXTON           N/A     86  68  54 S12         N/A
GOTHENBURG       N/A     82  61  49 S12         N/A
CALLAWAY         N/A     82  71  68 S16         N/A
$$

...NORTH PLATTE AREA...

CITY           SKY/WX    TMP DP  RH WIND       PRES   REMARKS
AIRPORT        SUNNY     85  64  49 S13       29.93S
DOWNTOWN         N/A     84  66  54 S7G16       N/A
HILLCREST        N/A     83  65  55 S13G23      N/A
$$

...SOME WEATHER OBSERVATIONS FROM AROUND THE REGION...

CITY           SKY/WX    TMP DP  RH WIND       PRES   REMARKS
DENVER         MOSUNNY   88  51  28 VRB3      30.01F
LARAMIE        MOSUNNY   79  43  27 CALM      30.16S
CHEYENNE       SUNNY     86  47  25 N9        30.05F
SCOTTSBLUFF    SUNNY     86  64  47 SE10G17   29.92S
RAPID CITY     SUNNY     86  63  45 NW5       29.84S
PIERRE         MOSUNNY   84  68  58 S16       29.80F
WINNER         FAIR      88  60  38 S16       29.86F
SIOUX FALLS    PTSUNNY   79  65  62 S10       29.94S
OMAHA          PTSUNNY   79  60  52 S12       29.99F
GRAND ISLAND   MOSUNNY   81  64  56 S14       29.98F
KANSAS CITY    PTSUNNY   78  61  55 SE6       30.02S
WICHITA        MOSUNNY   86  64  47 E8        29.97F
HAYS           SUNNY     84  63  48 S17G26    29.97F
LIBERAL        SUNNY     88  63  42 S15       30.01S
GOODLAND       SUNNY     87  60  40 S16       29.95F
$$



USA.gov is the U.S. government's official web portal to all federal, state and local government web resources and services.